Time,TemperatureF,DewpointF,PressureIn,WindDirection,WindDirectionDegrees,WindSpeedMPH,WindSpeedGustMPH,Humidity,HourlyPrecipIn,Conditions,Clouds,dailyrainin,SolarRadiationWatts/m^2,SoftwareType,DateUTC
2013-08-31 00:09:00,72.0,70.0,29.81,WSW,240,0.0,0.0,92,0.00,,,0.00,0,weatherlink.com 1.10,2013-08-31 04:09:00,
2013-08-31 00:23:00,71.7,70.0,29.81,WSW,240,0.0,0.0,93,0.00,,,0.00,0,weatherlink.com 1.10,2013-08-31 04:23:00,
2013-08-31 00:38:00,71.3,69.0,29.81,WSW,240,0.0,0.0,93,0.00,,,0.00,0,weatherlink.com 1.10,2013-08-31 04:38:00,
2013-08-31 00:53:00,71.4,70.0,29.80,WSW,240,0.0,0.0,94,0.00,,,0.00,0,weatherlink.com 1.10,2013-08-31 04:53:00,
2013-08-31 01:08:00,71.7,70.0,29.80,WSW,244,0.0,1.0,94,0.00,,,0.00,0,weatherlink.com 1.10,2013-08-31 05:08:00,
2013-08-31 01:23:00,72.4,70.0,29.80,NW,305,0.0,3.0,93,0.00,,,0.00,0,weatherlink.com 1.10,2013-08-31 05:23:00,
2013-08-31 01:38:00,72.6,70.0,29.80,NW,309,0.0,2.0,92,0.00,,,0.00,0,weatherlink.com 1.10,2013-08-31 05:38:00,
2013-08-31 01:53:00,72.6,70.0,29.79,NW,313,0.0,3.0,92,0.00,,,0.00,0,weatherlink.com 1.10,2013-08-31 05:53:00,
2013-08-31 02:08:00,72.5,70.0,29.79,NW,313,0.0,1.0,92,0.00,,,0.00,0,weatherlink.com 1.10,2013-08-31 06:08:00,
2013-08-31 02:23:00,72.3,70.0,29.79,NW,313,0.0,1.0,92,0.00,,,0.00,0,weatherlink.com 1.10,2013-08-31 06:23:00,
2013-08-31 02:38:00,72.2,70.0,29.79,NW,313,0.0,1.0,93,0.00,,,0.00,0,weatherlink.com 1.10,2013-08-31 06:38:00,
2013-08-31 02:53:00,72.3,70.0,29.79,NW,313,0.0,0.0,93,0.00,,,0.00,0,weatherlink.com 1.10,2013-08-31 06:53:00,
2013-08-31 03:08:00,72.4,70.0,29.80,NW,313,0.0,1.0,92,0.00,,,0.00,0,weatherlink.com 1.10,2013-08-31 07:08:00,
2013-08-31 03:24:00,72.2,70.0,29.79,NW,304,0.0,1.0,93,0.00,,,0.00,0,weatherlink.com 1.10,2013-08-31 07:24:00,
2013-08-31 03:38:00,72.2,70.0,29.79,NNW,339,0.0,1.0,93,0.00,,,0.00,0,weatherlink.com 1.10,2013-08-31 07:38:00,
2013-08-31 03:54:00,72.2,70.0,29.79,West,270,0.0,2.0,94,0.00,,,0.00,0,weatherlink.com 1.10,2013-08-31 07:54:00,
2013-08-31 04:09:00,72.4,70.0,29.79,NW,304,0.0,6.0,93,0.00,,,0.00,0,weatherlink.com 1.10,2013-08-31 08:09:00,
2013-08-31 04:24:00,72.3,70.0,29.79,NW,304,0.0,1.0,93,0.00,,,0.00,0,weatherlink.com 1.10,2013-08-31 08:24:00,
2013-08-31 04:39:00,72.1,70.0,29.79,NW,304,0.0,1.0,94,0.00,,,0.00,0,weatherlink.com 1.10,2013-08-31 08:39:00,
2013-08-31 04:54:00,71.9,70.0,29.79,NW,304,0.0,0.0,94,0.00,,,0.00,0,weatherlink.com 1.10,2013-08-31 08:54:00,
2013-08-31 05:09:00,71.8,70.0,29.80,NW,304,0.0,0.0,95,0.00,,,0.00,0,weatherlink.com 1.10,2013-08-31 09:09:00,
2013-08-31 05:24:00,71.7,70.0,29.80,NW,304,0.0,0.0,95,0.00,,,0.00,0,weatherlink.com 1.10,2013-08-31 09:24:00,
2013-08-31 05:38:00,71.6,70.0,29.80,NW,304,0.0,0.0,95,0.00,,,0.00,0,weatherlink.com 1.10,2013-08-31 09:38:00,
2013-08-31 05:54:00,71.5,70.0,29.80,NW,304,0.0,0.0,96,0.00,,,0.00,0,weatherlink.com 1.10,2013-08-31 09:54:00,
2013-08-31 06:09:00,71.4,70.0,29.80,NW,304,0.0,0.0,96,0.00,,,0.00,0,weatherlink.com 1.10,2013-08-31 10:09:00,
2013-08-31 06:24:00,71.2,70.0,29.80,NW,304,0.0,0.0,96,0.00,,,0.00,0,weatherlink.com 1.10,2013-08-31 10:24:00,
2013-08-31 06:39:00,71.0,70.0,29.80,NW,304,0.0,0.0,96,0.00,,,0.00,7,weatherlink.com 1.10,2013-08-31 10:39:00,
2013-08-31 06:54:00,71.1,70.0,29.80,NW,304,0.0,0.0,97,0.00,,,0.00,12,weatherlink.com 1.10,2013-08-31 10:54:00,
2013-08-31 07:09:00,71.1,70.0,29.80,NW,304,0.0,1.0,97,0.00,,,0.00,23,weatherlink.com 1.10,2013-08-31 11:09:00,
2013-08-31 07:24:00,71.2,70.0,29.81,NW,304,0.0,1.0,97,0.00,,,0.00,26,weatherlink.com 1.10,2013-08-31 11:24:00,
2013-08-31 07:39:00,71.2,70.0,29.81,NW,304,0.0,1.0,96,0.00,,,0.00,40,weatherlink.com 1.10,2013-08-31 11:39:00,
2013-08-31 07:54:00,71.5,71.0,29.81,NW,319,0.0,2.0,97,0.00,,,0.00,54,weatherlink.com 1.10,2013-08-31 11:54:00,
2013-08-31 08:09:00,71.9,71.0,29.81,ENE,73,0.0,1.0,96,0.00,,,0.00,77,weatherlink.com 1.10,2013-08-31 12:09:00,
2013-08-31 08:24:00,72.3,71.0,29.80,NW,315,0.0,3.0,95,0.00,,,0.00,95,weatherlink.com 1.10,2013-08-31 12:24:00,
2013-08-31 08:39:00,73.1,71.0,29.81,NNW,331,0.0,5.0,94,0.00,,,0.00,105,weatherlink.com 1.10,2013-08-31 12:39:00,
2013-08-31 08:54:00,73.4,71.0,29.81,NNW,327,1.0,4.0,93,0.00,,,0.00,105,weatherlink.com 1.10,2013-08-31 12:54:00,
2013-08-31 09:09:00,73.7,71.0,29.81,NW,305,0.0,2.0,92,0.00,,,0.00,91,weatherlink.com 1.10,2013-08-31 13:09:00,
2013-08-31 09:24:00,73.6,71.0,29.81,NW,317,0.0,4.0,91,0.00,,,0.00,105,weatherlink.com 1.10,2013-08-31 13:24:00,
2013-08-31 09:39:00,73.7,71.0,29.81,WNW,303,0.0,2.0,91,0.00,,,0.00,76,weatherlink.com 1.10,2013-08-31 13:39:00,
2013-08-31 09:54:00,73.7,71.0,29.82,NNW,332,0.0,2.0,91,0.00,,,0.00,127,weatherlink.com 1.10,2013-08-31 13:54:00,
2013-08-31 10:09:00,74.6,72.0,29.82,NNW,338,0.0,2.0,91,0.00,,,0.00,149,weatherlink.com 1.10,2013-08-31 14:09:00,
2013-08-31 10:24:00,74.6,72.0,29.82,NNW,338,0.0,1.0,90,0.00,,,0.00,113,weatherlink.com 1.10,2013-08-31 14:24:00,
2013-08-31 10:39:00,74.8,72.0,29.82,South,175,0.0,1.0,90,0.00,,,0.00,155,weatherlink.com 1.10,2013-08-31 14:39:00,
2013-08-31 10:54:00,75.8,72.0,29.81,WNW,292,0.0,2.0,89,0.00,,,0.00,211,weatherlink.com 1.10,2013-08-31 14:54:00,
2013-08-31 11:09:00,76.3,72.0,29.81,SSW,211,0.0,4.0,86,0.00,,,0.00,225,weatherlink.com 1.10,2013-08-31 15:09:00,
2013-08-31 11:24:00,76.3,72.0,29.81,WNW,300,0.0,4.0,86,0.00,,,0.00,169,weatherlink.com 1.10,2013-08-31 15:24:00,
2013-08-31 11:39:00,76.1,72.0,29.81,NNW,340,0.0,2.0,87,0.00,,,0.00,172,weatherlink.com 1.10,2013-08-31 15:39:00,
2013-08-31 11:54:00,77.2,72.0,29.80,WNW,301,2.0,3.0,85,0.00,,,0.00,313,weatherlink.com 1.10,2013-08-31 15:54:00,
2013-08-31 12:09:00,78.9,74.0,29.80,South,183,3.0,3.0,84,0.00,,,0.00,540,weatherlink.com 1.10,2013-08-31 16:09:00,
2013-08-31 12:24:00,79.2,73.0,29.80,NW,318,0.0,4.0,82,0.00,,,0.00,649,weatherlink.com 1.10,2013-08-31 16:24:00,
2013-08-31 12:39:00,79.3,74.0,29.80,SSE,154,1.0,2.0,83,0.00,,,0.00,538,weatherlink.com 1.10,2013-08-31 16:39:00,
2013-08-31 12:54:00,80.1,73.0,29.79,NW,317,0.0,4.0,80,0.00,,,0.00,643,weatherlink.com 1.10,2013-08-31 16:54:00,
2013-08-31 13:09:00,80.4,74.0,29.79,NNW,344,2.0,6.0,80,0.00,,,0.00,554,weatherlink.com 1.10,2013-08-31 17:09:00,
2013-08-31 13:25:00,81.3,74.0,29.78,SSE,153,1.0,6.0,78,0.00,,,0.00,708,weatherlink.com 1.10,2013-08-31 17:25:00,
2013-08-31 13:39:00,81.5,74.0,29.78,NNW,327,1.0,4.0,77,0.00,,,0.00,448,weatherlink.com 1.10,2013-08-31 17:39:00,
2013-08-31 13:55:00,81.3,74.0,29.77,NW,313,1.0,3.0,78,0.00,,,0.00,309,weatherlink.com 1.10,2013-08-31 17:55:00,
2013-08-31 14:10:00,81.1,74.0,29.77,NNW,335,0.0,5.0,80,0.00,,,0.00,316,weatherlink.com 1.10,2013-08-31 18:10:00,
2013-08-31 14:25:00,82.4,75.0,29.77,NNW,335,3.0,3.0,77,0.00,,,0.00,656,weatherlink.com 1.10,2013-08-31 18:25:00,
2013-08-31 14:40:00,83.8,76.0,29.77,North,355,0.0,3.0,77,0.00,,,0.00,675,weatherlink.com 1.10,2013-08-31 18:40:00,
2013-08-31 14:55:00,84.0,75.0,29.76,NNW,329,1.0,6.0,75,0.00,,,0.00,793,weatherlink.com 1.10,2013-08-31 18:55:00,
2013-08-31 15:10:00,84.6,76.0,29.75,NNW,331,1.0,4.0,75,0.00,,,0.00,773,weatherlink.com 1.10,2013-08-31 19:10:00,
2013-08-31 15:25:00,83.9,75.0,29.75,NW,311,1.0,5.0,74,0.00,,,0.00,446,weatherlink.com 1.10,2013-08-31 19:25:00,
2013-08-31 15:40:00,84.0,75.0,29.75,WNW,292,0.0,3.0,75,0.00,,,0.00,487,weatherlink.com 1.10,2013-08-31 19:40:00,
2013-08-31 15:55:00,83.1,75.0,29.75,WNW,299,0.0,3.0,76,0.00,,,0.00,241,weatherlink.com 1.10,2013-08-31 19:55:00,
2013-08-31 16:10:00,81.9,75.0,29.75,North,350,0.0,2.0,80,0.00,,,0.00,146,weatherlink.com 1.10,2013-08-31 20:10:00,
2013-08-31 16:25:00,81.3,75.0,29.75,SSW,193,0.0,3.0,80,0.00,,,0.00,100,weatherlink.com 1.10,2013-08-31 20:25:00,
2013-08-31 16:40:00,80.5,74.0,29.76,WNW,299,2.0,4.0,81,0.00,,,0.00,47,weatherlink.com 1.10,2013-08-31 20:40:00,
2013-08-31 16:55:00,79.4,74.0,29.76,SSW,197,0.0,2.0,82,0.00,,,0.00,32,weatherlink.com 1.10,2013-08-31 20:55:00,
2013-08-31 17:10:00,78.9,73.0,29.77,NNW,340,0.0,4.0,82,0.00,,,0.00,21,weatherlink.com 1.10,2013-08-31 21:10:00,
2013-08-31 17:25:00,78.6,73.0,29.76,NW,322,0.0,2.0,83,0.00,,,0.00,21,weatherlink.com 1.10,2013-08-31 21:25:00,
2013-08-31 17:40:00,78.1,73.0,29.76,NNW,339,0.0,3.0,84,0.00,,,0.00,21,weatherlink.com 1.10,2013-08-31 21:40:00,
2013-08-31 17:55:00,78.0,73.0,29.78,NNW,339,0.0,1.0,85,0.00,,,0.00,14,weatherlink.com 1.10,2013-08-31 21:55:00,
2013-08-31 18:10:00,77.8,73.0,29.77,NNW,339,0.0,1.0,86,0.00,,,0.00,12,weatherlink.com 1.10,2013-08-31 22:10:00,
2013-08-31 18:25:00,77.1,73.0,29.77,NNW,339,0.0,0.0,88,0.00,,,0.00,7,weatherlink.com 1.10,2013-08-31 22:25:00,
2013-08-31 18:40:00,76.7,73.0,29.78,WNW,294,1.0,3.0,87,0.00,,,0.00,0,weatherlink.com 1.10,2013-08-31 22:40:00,
2013-08-31 18:55:00,73.1,70.0,29.78,North,355,0.0,6.0,90,0.18,,,0.18,0,weatherlink.com 1.10,2013-08-31 22:55:00,
2013-08-31 19:10:00,71.6,70.0,29.77,North,11,0.0,1.0,93,0.22,,,0.22,0,weatherlink.com 1.10,2013-08-31 23:10:00,
2013-08-31 19:25:00,71.4,70.0,29.78,North,11,0.0,0.0,95,0.22,,,0.22,0,weatherlink.com 1.10,2013-08-31 23:25:00,
2013-08-31 19:40:00,71.1,70.0,29.79,North,11,0.0,0.0,96,0.24,,,0.24,0,weatherlink.com 1.10,2013-08-31 23:40:00,
2013-08-31 19:55:00,70.7,70.0,29.79,North,11,0.0,0.0,96,0.08,,,0.26,0,weatherlink.com 1.10,2013-08-31 23:55:00,
2013-08-31 20:10:00,70.9,70.0,29.80,North,11,0.0,0.0,97,0.04,,,0.26,0,weatherlink.com 1.10,2013-09-01 00:10:00,
2013-08-31 20:25:00,70.6,70.0,29.81,North,11,0.0,0.0,97,0.05,,,0.27,0,weatherlink.com 1.10,2013-09-01 00:25:00,
2013-08-31 20:40:00,70.8,70.0,29.81,North,11,0.0,0.0,97,0.02,,,0.27,0,weatherlink.com 1.10,2013-09-01 00:40:00,
2013-08-31 20:55:00,71.1,70.0,29.82,North,11,0.0,0.0,97,0.01,,,0.27,0,weatherlink.com 1.10,2013-09-01 00:55:00,
2013-08-31 21:10:00,71.0,70.0,29.82,North,11,0.0,0.0,97,0.01,,,0.27,0,weatherlink.com 1.10,2013-09-01 01:10:00,
2013-08-31 21:25:00,71.1,71.0,29.82,North,11,0.0,0.0,98,0.00,,,0.27,0,weatherlink.com 1.10,2013-09-01 01:25:00,
2013-08-31 21:40:00,70.9,70.0,29.82,North,11,0.0,0.0,98,0.00,,,0.27,0,weatherlink.com 1.10,2013-09-01 01:40:00,
2013-08-31 21:55:00,70.6,70.0,29.82,North,11,0.0,1.0,98,0.00,,,0.27,0,weatherlink.com 1.10,2013-09-01 01:55:00,
2013-08-31 22:10:00,70.6,70.0,29.83,North,11,0.0,0.0,98,0.00,,,0.27,0,weatherlink.com 1.10,2013-09-01 02:10:00,
2013-08-31 22:25:00,70.6,70.0,29.83,North,11,0.0,0.0,98,0.00,,,0.27,0,weatherlink.com 1.10,2013-09-01 02:25:00,
2013-08-31 22:40:00,70.5,70.0,29.83,North,11,0.0,0.0,98,0.00,,,0.27,0,weatherlink.com 1.10,2013-09-01 02:40:00,
2013-08-31 22:55:00,70.3,70.0,29.83,North,11,0.0,0.0,98,0.00,,,0.27,0,weatherlink.com 1.10,2013-09-01 02:55:00,
2013-08-31 23:10:00,70.2,70.0,29.82,North,11,0.0,0.0,98,0.00,,,0.27,0,weatherlink.com 1.10,2013-09-01 03:10:00,
2013-08-31 23:26:00,70.2,70.0,29.82,North,11,0.0,0.0,98,0.00,,,0.27,0,weatherlink.com 1.10,2013-09-01 03:26:00,
2013-08-31 23:40:00,70.1,70.0,29.82,North,11,0.0,0.0,98,0.00,,,0.27,0,weatherlink.com 1.10,2013-09-01 03:40:00,
2013-08-31 23:55:00,70.1,70.0,29.82,North,11,0.0,0.0,98,0.00,,,0.27,0,weatherlink.com 1.10,2013-09-01 03:55:00,